Weather History for KLMT - June, 2013

Change the Weather History Date:

Thursday, June 20, 2013

  Actual Average Record
Temperature  
Mean Temperature 49 °F 59 °F  
Max Temperature 63 °F 76 °F 93 °F (1970)
Min Temperature 34 °F 43 °F 33 °F (1990)
Degree Days  
Heating Degree Days 16 6  
Month to date heating degree days 130 170  
Since 1 June heating degree days 130 170  
Since 1 July heating degree days 6587 6926  
Cooling Degree Days 0 0  
Month to date cooling degree days 18 0  
Year to date cooling degree days 18 1  
Since 1 June cooling degree days 18 0  
Moisture  
Dew Point 36 °F    
Average Humidity 70    
Maximum Humidity 100    
Minimum Humidity 39    
Precipitation  
Precipitation 0.02 in 0.05 in 0.30 in (1950)
Month to date precipitation 0.34 0.58  
Year to date precipitation 3.73 8.37  
Sea Level Pressure  
Sea Level Pressure 30.06 in    
Wind  
Wind Speed 5 mph (NNW)    
Max Wind Speed 24 mph    
Max Gust Speed 29 mph    
Visibility 10 miles    
Events      
T = Trace of Precipitation, MM = Missing Value Source: NWS Daily Summary

Daily Weather History Graph

Daily Weather History Graph

Search for Another Location

Airport or City:

Trip Planner

Search our weather history database for the weather conditions in past years. The results will help you decide how hot, cold, wet, or windy it might be!

Date:

Astronomy

Jun. 20, 2013 Rise Set
Actual Time 5:30 AM PDT 8:46 PM PDT
Civil Twilight 4:56 AM PDT 9:21 PM PDT
Nautical Twilight 4:11 AM PDT 10:05 PM PDT
Astronomical Twilight 3:17 AM PDT 11:00 PM PDT
Moon 5:53 PM PDT (6/20) 3:03 AM PDT (6/20)
Length of Visible Light 16h 24m
Length of Day
15h 15m
Waxing Gibbous, 89% of the Moon is Illuminated
Jun 20
Waxing Gibbous
Jun 23
Full
Jun 29
Last Quarter
Jul 8
New
Jul 15
First Quarter

Hourly Weather History & Observations

Time (PDT) Temp. Windchill Dew Point Humidity Pressure Visibility Wind Dir Wind Speed Gust Speed Precip Events Conditions
12:53 AM 37.0 °F 32.4 °F 35.1 °F 93% 30.12 in 10.0 mi SSW 5.8 mph - N/A   Clear
1:53 AM 36.0 °F - 35.1 °F 97% 30.10 in 10.0 mi Calm Calm - N/A   Mostly Cloudy
2:03 AM 37.4 °F - 35.6 °F 93% 30.11 in 10.0 mi Calm Calm - N/A   Mostly Cloudy
2:16 AM 35.6 °F - 35.6 °F 100% 30.11 in 10.0 mi Calm Calm - N/A   Mostly Cloudy
2:53 AM 35.1 °F 31.0 °F 34.0 °F 96% 30.10 in 10.0 mi East 4.6 mph - N/A   Scattered Clouds
3:53 AM 36.0 °F - 35.1 °F 97% 30.09 in 10.0 mi Calm Calm - N/A   Overcast
4:53 AM 37.0 °F - 36.0 °F 96% 30.08 in 10.0 mi Calm Calm - N/A   Overcast
5:53 AM 37.0 °F - 35.1 °F 93% 30.08 in 10.0 mi Calm Calm - N/A   Mostly Cloudy
6:53 AM 39.0 °F - 37.9 °F 96% 30.06 in 9.0 mi Calm Calm - N/A   Clear
7:53 AM 44.1 °F - 39.0 °F 82% 30.05 in 10.0 mi Calm Calm - N/A   Partly Cloudy
8:53 AM 46.9 °F - 39.0 °F 74% 30.05 in 10.0 mi Calm Calm - N/A   Scattered Clouds
9:53 AM 50.0 °F - 37.9 °F 63% 30.05 in 10.0 mi Calm Calm - N/A   Scattered Clouds
10:53 AM 51.1 °F - 37.0 °F 59% 30.04 in 10.0 mi Calm Calm - N/A   Scattered Clouds
11:53 AM 55.0 °F - 37.0 °F 51% 30.03 in 10.0 mi Variable 4.6 mph - N/A   Mostly Cloudy
12:53 PM 55.9 °F - 36.0 °F 47% 30.04 in 10.0 mi NNW 5.8 mph - N/A   Mostly Cloudy
1:53 PM 59.0 °F - 37.0 °F 44% 30.01 in 10.0 mi Calm Calm - N/A   Overcast
2:53 PM 57.0 °F - 41.0 °F 55% 30.02 in 10.0 mi West 10.4 mph - 0.02 in   Mostly Cloudy
3:53 PM 60.1 °F - 37.9 °F 44% 30.01 in 10.0 mi NNW 13.8 mph 21.9 mph N/A   Mostly Cloudy
4:53 PM 61.0 °F - 39.0 °F 44% 30.01 in 10.0 mi North 15.0 mph 21.9 mph N/A   Mostly Cloudy
5:53 PM 60.1 °F - 36.0 °F 41% 30.01 in 10.0 mi North 21.9 mph 28.8 mph N/A   Scattered Clouds
6:53 PM 59.0 °F - 35.1 °F 41% 30.02 in 10.0 mi North 15.0 mph - N/A   Partly Cloudy
7:53 PM 55.9 °F - 34.0 °F 44% 30.04 in 10.0 mi NNW 12.7 mph 23.0 mph N/A   Clear
8:53 PM 53.1 °F - 34.0 °F 48% 30.05 in 10.0 mi NW 9.2 mph - N/A   Clear
9:53 PM 48.0 °F - 36.0 °F 63% 30.07 in 10.0 mi NW 5.8 mph - N/A   Clear
10:53 PM 45.0 °F 42.6 °F 36.0 °F 71% 30.09 in 10.0 mi West 4.6 mph - N/A   Clear
11:53 PM 41.0 °F 39.0 °F 35.1 °F 79% 30.09 in 10.0 mi ENE 3.5 mph - N/A   Clear